Location: Coffee Creek Observatory
(38.8077°N, 94.7179°W)
Time: 13:21:10
(UTC-05:00)

Daily predictions for brighter satellites

Satellite Brightness Start Highest point End
(mag) Time Altitude Azimuth Time Altitude Azimuth Time Altitude Azimuth
Cosmos 1184 Rocket 3.8 19:37:35 10° NNW 19:40:54 54° W 19:44:12 10° S
Meteor 2-5 Rocket 4.0 19:42:07 10° N 19:47:47 49° ENE 19:53:18 10° SSE
FENGYUN 3A 3.6 19:43:17 10° SSE 19:48:34 68° ENE 19:53:54 10° N
Cosmos 1656 Rocket 4.2 19:43:38 10° N 19:48:56 40° ENE 19:54:08 10° SE
COSMO-SKYMED 1 3.6 19:46:19 10° N 19:50:32 51° WNW 19:54:44 10° SSW
Cosmos 2181 Rocket 3.9 19:47:40 10° N 19:53:52 73° E 19:59:59 10° SSE
Cosmos 1766 4.3 19:50:56 10° SE 19:54:07 24° E 19:57:17 10° NE
COSMOS 2406 3.8 19:49:27 10° SSE 19:54:31 34° ESE 19:59:38 10° NE
Lacrosse 5 3.9 19:50:34 10° WNW 19:54:51 28° WSW 19:59:07 10° S
NOAA 12 4.2 19:51:47 10° SSE 19:57:01 85° WSW 20:02:19 10° NNW
Thor Agena Rocket 3.5 19:51:50 10° NNE 19:57:07 74° ESE 20:02:16 10° S
Cosmos 1707 2.7 19:53:17 10° N 19:57:12 66° E 20:01:06 10° SSE
Cosmos 1758 Rocket 3.6 19:53:05 10° N 19:57:35 85° E 20:02:05 10° S
BREEZE M DEB (TANK) 4.1 19:49:13 10° WNW 19:57:37 45° NNE 20:00:22 14° E
Cosmos 2369 Rocket 3.6 19:53:48 10° NW 19:59:02 41° WSW 20:04:14 10° S
Cosmos 1726 Rocket 3.6 19:57:10 10° S 20:01:31 82° W 20:05:53 10° N
FengYun 1-2 T 4.3 19:57:50 10° SSE 20:03:18 57° ENE 20:08:46 10° N
Cosmos 2074 Rocket 4.1 20:01:39 10° SSE 20:07:39 54° E 20:13:39 10° NNE
Cosmos 1544 3.8 20:09:00 10° SSE 20:12:13 31° E 20:15:26 10° NNE
Cosmos 1378 3.1 20:08:34 10° N 20:12:22 87° W 20:16:08 10° S
Cosmos 2084 4.0 20:11:32 10° SW 20:15:34 56° NW 20:19:25 10° NNE
Cosmos 1340 Rocket 4.3 20:19:24 10° NNW 20:23:13 41° W 20:27:03 10° SSW
Cosmos 990 Rocket 4.4 20:20:06 10° NNW 20:25:13 63° WSW 20:30:15 10° S
Cosmos 1805 3.8 20:25:26 10° SSE 20:29:00 35° E 20:32:35 10° NNE
Cosmos 1125 Rocket 4.0 20:24:46 10° N 20:29:47 41° ENE 20:32:25 24° ESE
Resurs 01 Rocket 2.0 20:28:06 22° SE 20:30:28 41° ENE 20:34:38 10° N
Cosmos 2228 3.7 20:26:17 10° SSW 20:30:35 58° W 20:34:53 10° N
FALCON 9 R/B 1.9 20:29:04 10° WSW 20:31:56 50° S 20:34:47 25° ESE
CZ-2D R/B 3.2 20:32:58 24° SE 20:35:04 56° ENE 20:38:50 10° N
GEOS 3 Rocket 4.5 20:34:02 25° E 20:35:33 29° ESE 20:40:07 10° S
GP-B 3.5 20:32:39 10° NNE 20:36:51 40° E 20:38:38 28° SE
Envisat 3.4 20:34:58 26° ESE 20:37:17 41° ENE 20:42:02 10° N
Nadezhda 3 Rocket 4.3 20:31:22 10° N 20:37:19 42° ENE 20:40:53 22° SE
ISS -2.2 20:34:37 10° SSW 20:36:15 21° S 20:36:15 21° S
Cosmos 372 Rocket 4.4 20:33:52 10° N 20:38:52 43° ENE 20:40:49 31° ESE
Cosmos 1812 Rocket 3.6 20:35:56 10° S 20:40:15 53° E 20:44:36 10° NNE
Cosmos 2184 Rocket 4.1 20:37:58 10° S 20:44:16 80° W 20:50:39 10° N
ORS 1 (USA 231) 4.3 20:44:08 10° WNW 20:46:58 80° NW 20:46:58 80° NW
Meteor 2-8 Rocket 4.3 20:44:10 10° N 20:50:19 78° E 20:56:24 10° S
Cosmos 1610 Rocket 4.4 20:44:49 10° S 20:51:09 81° E 20:57:35 10° N
SJ-6B 4.0 20:48:55 10° S 20:52:45 43° W 20:56:33 10° NNW
Meteor 1-24 Rocket 4.0 20:47:21 10° NNW 20:53:19 74° W 20:59:04 10° S
Cosmos 1356 Rocket 4.4 20:50:24 10° NNW 20:54:34 50° W 20:58:43 10° S
Cosmos 1953 4.1 20:58:27 20° NNE 20:58:27 20° NNE 20:59:51 10° NNE
ATLAS 2AS CENTAUR R/B 4.0 20:53:59 10° NNW 21:00:40 28° NE 21:02:57 24° ENE
Meteor 2-19 Rocket 4.3 20:55:04 10° S 21:01:07 85° E 21:07:11 10° N
NOSS 3-1 (A) 4.2 21:02:38 10° NW 21:10:23 77° WSW 21:15:47 25° SSE
Cosmos 1697 Rocket 4.4 21:06:56 10° N 21:09:50 17° NE 21:09:50 17° NE
Cosmos 1980 Rocket 4.4 21:09:52 10° NNE 21:10:25 11° NE 21:10:25 11° NE
SJ-11-01 4.5 21:14:45 54° NE 21:14:45 54° NE 21:18:49 10° N
Cosmos 540 Rocket 4.3 21:12:51 10° SW 21:17:47 49° WNW 21:22:45 10° N
Cosmos 1900 4.3 21:14:20 10° SSW 21:19:24 89° WNW 21:22:28 25° NNE
Milstar 3 Cent rocket 3.6 21:20:06 10° SW 21:22:32 20° SSW 21:22:32 20° SSW
Cosmos 962 Rocket 4.4 21:21:07 10° S 21:27:28 88° E 21:33:52 10° N
ATLAS CENTAUR R/B 3.8 21:22:15 10° NW 21:32:01 39° WSW 21:33:56 28° SSW
Meteor 1-21 Rocket 4.4 21:44:45 10° NNW 21:50:26 66° W 21:50:34 66° WSW
Cosmos 2369 4.4 21:49:49 10° NNW 21:53:51 46° N 21:53:51 46° N
Resurs 01 Rocket 4.2 22:05:41 14° WSW 22:07:06 17° W 22:09:56 10° NW
BREEZE-M DEB (TANK) 4.4 22:09:44 10° W 22:15:15 35° NW 22:15:15 35° NW
H-2A R/B 4.4 22:30:21 15° N 22:30:21 15° N 22:31:11 10° N
ATLAS 2AS CENTAUR R/B 3.6 22:44:38 10° NW 22:50:24 51° NW 22:50:24 51° NW
Cosmos 1980 Rocket 4.4 22:50:40 10° NNW 22:52:11 19° NNW 22:52:11 19° NNW
